GFSFLT2_prec_cloud_006.txt.gz
Cloud_Cover
99 98 100 100 100 100 100 100 100 100 100 100 100 99 89 100 24 0 0 0 0 0 0 0 0 0 0 0 0 0 0 0
81 78 100 100 100 100 100 96 100 100 100 100 100 99 91 100 27 2 2 0 0 0 0 0 0 0 0 0 0 0 0 0
100 100 100 100 100 100 100 100 100 100 100 100 100 100 73 62 0 1 0 0 0 0 0 0 0 0 0 0 0 0 0 0
100 100 100 100 100 100 100 100 100 100 100 83 100 86 8 0 1 2 0 0 0 0 0 0 0 0 0 0 0 0 0 0
100 100 100 100 100 100 100 100 100 83 100 100 73 5 26 10 5 2 2 0 0 0 0 0 0 0 0 0 0 0 0 0
100 100 100 100 100 100 100 100 100 100 100 100 100 100 99 25 21 9 2 0 0 0 0 0 0 0 0 0 2 0 0 0
100 100 100 100 100 100 100 100 100 100 100 100 100 100 24 39 29 75 0 3 0 0 1 0 0 0 0 0 0 4 2 0
100 100 100 100 100 100 100 100 100 100 100 100 100 98 57 100 27 2 0 5 5 4 5 0 5 3 4 4 1 0 6 9
100 98 29 19 72 100 100 100 100 100 100 90 11 24 67 9 0 0 3 0 0 0 0 3 5 5 5 6 5 5 5 3
7 8 11 3 0 4 19 100 100 100 100 97 88 100 9 5 3 2 3 5 3 0 0 0 3 5 5 5 13 5 5 5
5 97 25 48 5 5 5 5 94 86 88 62 53 46 28 72 66 60 30 59 23 2 2 5 5 7 5 9 45 42 35 22
50 18 5 86 96 19 5 8 18 8 75 8 47 5 82 94 65 91 21 5 2 0 0 3 5 5 21 51 92 100 100 100
42 100 100 44 5 5 4 5 5 6 98 66 78 75 36 95 26 5 5 2 0 0 2 0 3 5 5 5 62 99 100 100
79 58 5 5 5 3 4 5 45 80 73 75 76 90 28 16 21 4 2 2 0 0 0 0 0 1 0 0 2 7 10 43
0 5 5 5 6 31 42 76 89 99 56 5 93 68 8 5 5 0 1 3 5 5 5 8 5 3 2 4 0 0 3 9
0 1 4 5 5 39 100 100 95 8 5 5 5 5 5 5 5 5 11 15 5 24 51 63 92 60 60 49 11 9 2 60
0 3 5 5 14 55 52 58 5 5 5 5 7 61 16 5 80 100 100 100 5 5 5 5 29 81 61 3 4 5 5 5
5 0 7 30 26 88 91 44 17 11 44 73 31 35 47 68 76 90 95 39 63 41 2 2 5 21 15 5 14 98 46 30
86 49 14 5 4 1 5 5 26 9 57 98 100 45 100 47 100 99 61 7 0 0 5 5 66 99 99 99 99 87 100 48
66 96 67 40 19 29 12 49 100 100 100 85 100 100 100 37 11 5 78 12 0 3 0 0 0 1 0 2 9 8 67 99

GFSFLT2_prec_cloud_009.txt.gz
Cloud_Cover
99 100 100 100 100 100 100 100 85 100 100 100 100 100 100 100 52 77 98 15 50 1 0 0 0 0 0 0 0 0 0 0
100 94 100 100 100 100 100 100 100 100 100 100 100 100 100 25 99 63 11 5 0 3 1 0 0 0 0 0 0 0 0 0
100 100 100 100 100 100 100 100 100 100 100 84 100 100 100 100 100 46 28 3 5 4 5 0 0 0 0 0 0 0 0 0
100 100 100 100 100 100 100 100 100 100 100 100 100 100 100 100 26 54 28 5 5 5 5 0 0 0 0 0 0 0 0 0
100 100 100 100 100 100 100 100 100 100 100 100 100 100 100 100 100 57 5 5 5 5 5 3 0 0 0 0 0 0 0 0
100 100 100 100 100 100 100 100 100 100 100 100 100 23 8 3 4 5 8 5 14 5 15 1 0 0 0 0 0 0 4 0
100 100 100 100 100 100 100 100 100 100 97 47 89 50 15 80 86 3 82 35 62 41 8 5 1 1 0 0 0 2 2 1
100 100 100 100 100 100 100 85 99 81 87 94 100 100 100 96 100 100 57 89 86 16 0 4 5 0 0 0 0 0 0 0
100 100 97 99 64 67 69 5 5 59 10 5 5 6 86 100 95 100 40 9 0 2 2 5 4 5 5 5 5 3 0 0
10 22 56 99 100 100 94 90 34 5 4 5 5 5 5 5 5 5 5 5 5 5 0 0 0 0 1 3 4 4 0 0
47 100 100 100 100 100 98 100 75 24 53 32 48 13 24 5 48 53 6 5 5 5 2 0 0 0 0 1 3 5 5 2
81 100 100 100 100 100 81 36 73 78 47 68 100 78 35 74 88 47 14 5 3 2 1 0 0 0 4 5 5 5 5 5
6 6 61 65 43 14 4 5 5 5 37 43 70 100 100 65 5 5 5 2 0 0 0 0 0 0 0 5 5 5 5 7
50 4 9 51 1 0 2 18 50 70 96 98 99 59 5 5 5 4 1 0 0 4 5 5 5 4 5 1 4 5 5 5
27 2 0 5 0 8 4 5 6 69 29 11 5 4 2 0 0 0 2 3 5 5 5 5 5 5 5 4 0 2 3 2
1 0 0 0 2 5 5 84 99 38 5 0 0 0 0 0 5 5 5 6 76 44 30 5 5 17 4 0 0 0 14 7
0 0 0 5 6 90 100 97 5 0 0 2 5 6 5 5 6 13 99 100 72 35 16 0 0 4 4 6 6 43 67 98
0 2 5 5 22 4 1 0 1 2 5 7 34 75 41 70 100 68 69 83 86 96 95 0 0 1 2 3 9 82 100 100
4 74 44 3 0 0 1 3 6 48 50 36 87 98 88 72 14 4 5 6 5 4 5 4 4 6 0 3 4 6 19 24
0 0 0 5 5 5 4 5 6 13 97 95 86 40 4 5 14 92 84 100 99 100 100 82 10 75 45 0 0 0 4 8

GFSFLT2_prec_cloud_012.txt.gz
Cloud_Cover
93 100 72 100 100 100 100 100 90 49 100 93 5 20 21 56 91 100 100 100 79 5 12 0 0 0 0 0 0 0 0 0
100 100 100 100 100 100 100 100 100 100 100 67 100 100 87 73 100 100 99 58 78 47 7 0 0 0 0 0 0 0 0 0
100 100 100 78 83 100 100 100 100 100 100 100 100 100 100 100 100 100 70 8 44 8 2 1 1 4 5 0 0 0 0 0
100 100 100 100 100 100 99 100 100 100 100 100 100 100 100 100 100 98 49 5 5 2 0 0 0 0 2 5 0 0 0 0
100 100 99 100 100 100 100 100 100 100 100 100 100 100 100 76 13 41 8 0 0 0 2 0 4 3 5 5 0 0 0 0
100 100 100 100 100 100 100 100 100 100 100 100 100 86 50 64 4 27 12 7 4 24 8 5 0 0 2 0 0 0 0 0
100 100 100 100 100 100 100 100 100 100 100 97 80 22 80 61 5 5 5 0 0 0 2 0 0 0 0 0 0 0 0 0
100 100 100 100 100 100 100 100 100 89 74 32 5 42 5 5 5 5 5 2 5 5 5 0 0 0 0 0 0 0 0 0
100 100 100 100 100 100 100 100 100 98 96 20 99 31 5 14 5 5 5 5 6 5 5 4 1 0 0 0 0 1 3 0
100 63 94 74 100 100 100 100 100 60 5 68 82 57 6 5 5 7 88 71 38 5 5 5 1 0 0 0 0 1 5 5
57 95 94 100 100 100 100 100 100 100 100 100 83 5 48 6 77 9 78 75 7 5 5 1 0 0 3 5 5 5 5 5
77 94 100 100 100 100 100 100 100 100 100 72 5 14 91 84 97 98 9 4 5 4 0 0 0 0 1 0 0 0 0 1
100 100 100 95 100 100 100 97 48 10 43 5 5 99 65 5 33 4 1 0 0 0 0 0 0 0 0 0 0 0 0 1
83 11 20 35 68 16 10 5 4 2 5 5 5 5 42 5 4 0 0 0 1 5 5 5 5 5 1 0 0 3 3 1
5 2 4 0 3 0 3 5 1 5 3 1 2 1 0 0 0 1 1 5 5 5 17 5 5 26 18 25 5 1 1 1
29 89 92 42 5 5 5 5 5 0 0 0 0 4 3 5 5 5 5 5 6 36 6 12 35 14 15 3 4 62 97 14
92 57 5 5 4 2 1 0 0 0 0 0 5 5 5 5 39 86 17 5 6 59 21 3 5 2 1 1 4 5 33 66
8 2 5 1 0 0 0 0 1 1 2 3 5 5 5 5 5 9 60 21 5 21 87 50 5 3 4 6 8 13 7 68
5 4 2 1 0 5 5 5 5 5 4 5 11 4 3 16 30 7 5 5 68 73 96 100 100 86 75 77 57 55 10 37
5 5 5 5 5 5 4 0 3 0 0 4 5 6 5 5 2 1 4 66 44 75 100 97 86 58 66 82 77 81 3 1

GFSFLT2_prec_cloud_015.txt.gz
Cloud_Cover
100 100 100 100 100 98 57 90 73 71 97 18 65 86 52 88 15 5 8 5 93 97 25 71 13 6 0 0 0 0 0 0
100 100 100 100 100 100 89 100 100 99 36 18 100 97 100 98 100 35 10 84 6 21 27 5 5 3 0 0 0 0 0 0
100 98 100 99 100 100 82 85 100 99 56 100 100 100 100 100 100 85 99 45 7 87 8 4 0 0 0 7 0 0 0 0
100 100 100 100 100 97 100 100 100 100 100 100 100 100 97 97 100 100 100 37 41 6 4 0 0 0 0 5 1 0 0 0
100 100 100 100 100 100 100 100 100 100 100 100 100 100 91 95 32 30 53 5 4 6 0 0 0 0 0 0 0 0 0 0
100 100 100 100 100 100 100 100 100 100 100 100 100 73 21 21 22 5 5 8 10 3 0 0 0 0 0 0 0 0 0 0
100 98 100 100 100 100 100 100 100 100 100 100 100 61 5 5 7 51 7 5 5 6 5 4 0 0 0 0 0 0 0 0
100 88 82 100 100 100 100 100 100 100 100 100 100 100 69 92 9 6 5 5 8 14 5 5 5 0 0 0 0 0 0 0
82 83 100 100 100 100 100 100 100 100 100 100 93 100 84 95 86 96 100 53 9 10 38 5 0 0 0 0 0 0 0 0
60 99 100 100 100 100 100 100 100 100 100 100 100 100 100 100 100 100 72 42 49 25 5 3 3 3 4 5 4 0 0 0
100 100 100 100 100 100 100 100 100 100 100 100 100 100 100 100 28 9 55 25 5 5 5 5 2 0 0 0 0 0 0 0
42 76 94 100 100 92 100 100 100 100 100 100 100 76 14 2 5 5 5 5 4 0 0 0 0 4 1 0 0 0 0 0
100 67 86 84 77 91 100 100 100 99 38 0 0 0 5 5 5 5 0 0 0 0 0 5 5 5 5 5 2 0 3 3
79 20 30 20 5 4 1 2 1 0 0 0 1 4 2 0 0 0 2 5 5 5 5 0 4 4 2 0 0 5 5 4
5 1 3 5 2 3 3 0 0 0 0 0 0 0 0 0 3 4 5 5 5 2 0 0 0 0 0 0 0 0 5 0
39 59 79 13 52 34 4 0 0 0 0 0 0 0 0 0 0 3 2 0 0 0 3 0 0 1 1 5 3 9 5 0
88 100 100 97 0 0 0 0 0 0 0 0 0 0 0 5 5 5 3 0 0 0 1 8 5 73 98 98 99 100 100 68
0 1 3 5 5 4 2 5 3 3 5 5 5 1 0 0 0 0 0 2 4 43 87 93 70 56 35 17 76 86 86 96
4 5 5 5 5 5 5 5 39 5 15 4 0 0 0 0 0 3 5 5 35 100 94 53 58 23 5 5 16 4 2 5
5 5 5 22 99 50 9 44 77 79 48 3 0 4 5 5 5 13 5 5 62 100 100 10 3 4 3 5 5 1 0 2

GFSFLT2_prec_cloud_018.txt.gz
Cloud_Cover
100 100 100 100 100 100 100 100 100 100 100 100 30 76 60 32 89 98 22 100 100 97 98 99 100 100 7 5 4 0 0 0
100 100 100 100 100 100 100 100 100 100 87 63 100 100 100 91 95 44 96 99 97 98 100 100 100 100 22 5 0 0 0 0
100 100 100 100 100 100 100 100 100 99 100 100 100 94 100 100 84 40 65 15 5 21 84 5 88 11 1 0 0 0 0 0
100 100 100 98 100 100 100 100 100 100 100 100 100 100 100 77 5 41 25 29 8 18 5 5 5 0 0 0 0 0 0 0
100 100 100 100 99 99 100 100 100 100 100 100 100 100 100 44 6 5 50 16 6 5 5 5 0 0 0 0 0 0 0 0
100 100 100 100 100 100 100 100 100 100 100 100 100 100 78 66 20 6 7 5 5 5 4 0 0 0 0 0 0 0 0 0
100 100 100 100 99 100 97 100 100 100 100 100 96 100 100 93 96 99 22 5 66 25 6 18 18 5 1 0 0 0 0 0
100 100 100 100 100 100 100 100 100 100 100 100 100 100 100 100 100 66 84 71 7 72 97 25 5 5 0 0 0 0 0 0
100 53 67 90 100 100 96 100 100 100 100 100 100 100 100 100 100 100 100 100 100 100 95 62 4 0 0 0 0 0 0 0
90 90 41 94 100 100 100 100 100 100 100 100 100 100 100 100 100 100 100 100 100 55 15 0 0 0 5 5 5 5 2 0
85 77 76 97 100 100 100 100 100 100 100 100 100 100 100 100 100 100 57 4 0 1 2 5 2 2 2 1 4 4 0 4
70 97 100 99 100 100 100 100 100 100 100 100 96 90 72 100 62 6 3 2 0 0 0 0 0 3 0 0 1 0 1 2
99 100 98 100 93 99 100 94 58 19 4 4 0 0 0 0 0 0 0 0 0 0 5 5 1 2 0 0 0 4 42 78
73 57 56 72 76 63 0 1 4 5 3 0 0 0 0 0 0 0 0 0 0 0 1 2 4 6 22 5 4 3 0 55
7 5 5 5 77 61 27 3 36 0 0 0 0 0 0 0 0 0 0 0 1 0 0 5 5 5 43 5 4 2 3 3
5 5 5 5 43 35 0 0 0 3 5 5 5 3 5 5 0 0 0 0 0 1 5 1 5 5 5 5 5 5 34 26
47 79 14 0 0 0 1 5 5 5 5 5 5 5 5 5 3 0 4 1 5 0 0 5 6 46 63 82 5 5 7 37
5 0 0 5 5 5 5 5 43 23 30 5 5 18 23 5 2 0 0 0 16 5 5 5 50 100 86 5 5 5 5 24
1 4 5 5 5 5 74 74 75 70 21 5 71 94 12 0 1 4 13 5 14 46 100 59 29 56 61 15 12 66 71 100
5 3 5 5 5 62 94 96 100 100 100 98 91 5 5 11 68 32 5 31 91 100 94 99 100 90 85 83 98 100 100 100

GFSFLT2_prec_cloud_021.txt.gz
Cloud_Cover
100 100 100 100 100 100 100 100 100 100 100 100 100 100 100 100 100 98 99 48 71 98 5 6 20 97 90 86 23 76 6 5
100 100 100 100 100 100 100 100 100 100 100 81 100 100 100 100 100 100 100 100 79 27 29 5 5 58 56 100 33 5 2 1
100 100 100 100 100 100 100 100 100 100 100 100 100 100 100 100 100 100 100 86 99 6 5 5 13 5 59 92 43 31 4 2
100 100 100 100 100 100 100 100 100 100 100 100 100 100 100 100 94 100 89 66 14 4 27 1 0 5 5 5 10 1 2 2
100 100 100 100 100 100 100 100 100 100 100 100 100 100 100 98 36 59 43 43 17 5 23 3 1 3 0 0 2 5 0 0
100 100 100 100 100 100 100 100 99 100 100 100 100 100 98 87 89 60 14 54 5 7 40 16 58 100 12 100 98 74 3 0
100 100 100 100 100 100 100 100 100 100 100 100 100 100 100 100 100 100 79 79 40 100 100 88 99 100 90 45 11 4 0 0
100 100 100 100 100 100 100 100 100 100 100 100 100 100 100 100 100 100 100 100 97 86 96 100 65 94 90 3 1 5 3 5
100 100 100 100 100 100 100 100 100 100 100 100 100 100 100 100 100 100 100 100 100 100 100 99 9 5 1 4 3 5 5 4
93 100 100 96 55 97 100 100 100 100 100 100 100 100 100 100 100 100 100 100 100 100 100 92 2 0 0 5 5 1 5 5
100 99 100 99 100 100 100 91 46 100 100 100 98 100 94 98 100 100 99 69 8 0 0 0 0 0 4 5 3 0 5 0
100 100 100 86 72 100 100 100 100 84 61 55 38 12 77 57 16 2 0 0 0 0 0 0 0 2 1 5 0 2 0 2
96 100 100 54 88 100 100 100 40 22 4 0 0 0 0 0 0 0 0 0 0 0 2 0 0 0 2 5 5 0 1 5
78 87 78 91 99 56 25 73 7 7 0 0 0 0 5 5 5 4 5 3 5 5 0 4 2 0 5 5 5 5 5 4
98 98 54 80 33 5 12 5 2 0 0 0 3 5 5 4 2 5 5 5 4 0 4 5 5 5 5 5 5 5 5 4
18 18 12 8 5 2 0 8 94 6 5 5 5 5 2 5 5 5 5 0 4 6 5 4 5 5 5 5 34 58 99 31
6 8 2 0 0 0 0 3 5 5 5 5 5 5 9 72 5 5 3 0 5 5 5 5 5 11 60 40 100 91 76 88
5 1 0 0 0 0 0 4 5 5 42 37 19 85 11 17 71 39 0 5 5 5 8 28 8 76 67 37 73 89 68 95
5 2 0 0 0 5 5 5 37 48 100 76 98 42 14 84 19 5 2 3 5 5 35 5 81 94 75 91 99 98 93 98
5 5 5 4 3 5 5 83 76 100 80 89 6 5 61 5 4 5 5 73 56 47 21 51 89 92 26 97 72 91 99 100

GFSFLT2_prec_cloud_024.txt.gz
Cloud_Cover
100 100 100 100 100 100 100 100 100 100 100 100 100 100 100 100 100 96 87 100 100 85 100 100 100 78 100 99 5 11 8 93
100 100 100 100 100 100 100 100 100 100 100 100 100 100 100 100 100 100 100 100 62 11 100 100 100 100 23 26 3 5 37 69
100 100 100 100 100 100 100 100 100 100 100 100 100 100 100 100 100 98 100 100 99 60 24 100 84 11 5 1 2 0 0 4
100 100 100 100 100 100 100 100 100 100 100 100 100 100 100 100 100 100 100 97 78 100 100 49 41 17 2 0 0 0 0 0
100 100 100 100 100 100 100 100 100 100 100 100 100 100 100 100 100 100 93 100 100 42 74 99 56 58 22 5 4 5 5 64
100 100 100 100 100 100 100 100 100 100 100 100 100 100 100 100 100 57 16 16 92 35 60 98 5 5 11 39 100 76 100 3
100 100 100 100 100 100 100 100 100 100 100 100 100 100 100 100 98 45 82 100 90 100 85 100 70 90 100 100 100 100 100 95
100 100 100 100 100 100 100 100 100 100 100 100 100 100 100 100 100 100 100 100 100 100 100 95 52 57 99 100 100 100 66 1
100 100 100 100 100 100 100 100 100 100 100 100 100 100 100 100 100 99 100 100 99 100 93 100 100 100 62 4 0 0 0 0
100 100 100 100 100 100 100 100 100 100 100 100 90 94 100 100 100 100 72 97 100 96 42 5 4 2 0 0 0 0 0 0
100 100 100 100 100 100 97 85 71 87 100 100 100 100 70 10 5 4 6 5 4 0 0 0 0 0 0 0 0 0 0 0
100 100 100 99 80 51 100 90 95 98 100 92 36 5 5 4 1 2 1 0 0 0 0 5 5 3 0 0 0 0 0 0
100 58 100 98 67 88 100 23 5 5 5 5 5 1 0 0 0 1 4 0 3 0 5 0 0 0 0 0 0 0 0 0
75 47 100 83 26 96 51 24 8 4 0 0 0 5 4 1 3 4 1 5 5 5 4 0 0 0 0 0 0 3 0 0
49 26 60 5 39 99 100 99 0 0 0 0 5 5 5 5 4 5 5 5 5 4 0 0 1 2 0 2 1 4 5 4
48 75 30 100 71 0 0 0 0 0 7 0 4 17 79 41 23 5 1 5 5 1 0 2 0 0 3 1 5 5 5 5
100 64 52 5 4 0 0 0 0 0 0 5 16 83 86 5 36 5 0 0 0 0 0 5 5 6 5 5 5 5 5 5
11 5 5 5 2 0 0 0 0 1 5 36 66 91 65 24 4 1 4 4 5 0 5 5 44 18 3 39 28 13 5 51
0 0 3 0 0 2 5 5 5 5 5 68 100 100 70 12 25 24 5 5 5 5 5 5 10 3 52 99 12 97 33 5
0 0 2 5 5 28 22 24 5 5 71 77 100 100 99 98 5 5 48 59 27 33 51 8 5 5 52 100 99 38 70 97

GFSFLT2_prec_cloud_027.txt.gz
Cloud_Cover
100 100 100 100 100 100 100 100 100 100 100 100 100 100 100 100 100 100 100 87 100 100 100 100 100 100 27 48 18 5 78 58
100 100 100 100 100 100 100 100 100 100 100 100 100 100 100 100 100 100 100 100 100 100 100 100 57 100 85 88 100 15 88 84
100 100 100 100 100 100 100 100 100 100 100 100 100 100 100 100 93 100 100 100 100 100 100 100 100 100 100 41 7 2 5 3
100 100 100 100 100 100 100 100 100 100 100 100 100 100 100 100 100 100 100 100 99 100 100 100 100 55 6 2 7 17 21 5
100 100 100 100 100 100 100 100 100 100 100 100 100 100 100 100 100 100 100 100 100 100 100 100 77 6 88 79 91 80 5 14
100 100 100 100 100 100 100 100 100 100 100 100 100 100 100 100 100 100 100 100 100 100 100 99 75 20 100 79 95 100 82 11
100 100 100 100 100 100 100 100 100 100 100 100 100 100 100 100 99 100 100 100 100 100 100 100 88 53 37 30 31 93 96 100
100 100 100 100 100 100 100 100 100 100 100 100 100 100 100 100 100 100 100 100 100 100 100 67 97 75 52 38 17 1 0 0
100 100 100 100 100 100 100 100 100 100 100 100 100 100 100 100 100 100 100 100 60 11 7 5 4 0 0 0 0 0 0 0
100 100 100 100 100 100 100 100 100 100 100 100 100 100 100 100 98 92 28 18 6 5 4 1 0 0 0 0 0 0 0 0
100 100 100 100 100 100 100 100 100 100 100 100 100 98 77 68 73 10 29 12 5 5 2 0 0 0 0 0 0 0 0 0
100 25 8 37 100 100 100 100 99 49 51 27 71 49 58 8 5 5 5 5 4 5 2 0 0 0 0 0 0 0 0 0
100 100 100 100 100 100 100 100 57 100 100 97 57 5 7 5 5 3 4 5 5 5 0 0 0 0 0 0 0 0 0 0
93 100 100 95 87 52 43 26 21 10 5 5 5 5 5 5 5 60 97 5 6 3 0 0 0 0 0 0 0 0 0 0
100 90 90 38 5 7 20 5 42 8 4 2 0 0 5 5 75 81 11 25 23 0 0 0 0 0 0 2 2 0 0 0
100 55 23 6 22 58 50 41 2 0 0 0 0 5 5 5 74 76 68 4 0 2 0 0 0 2 3 5 5 3 0 3
44 43 76 77 9 21 21 72 26 0 0 0 5 6 74 10 84 88 97 98 59 2 2 3 3 5 5 5 6 5 5 5
59 1 76 65 50 28 5 4 0 0 0 3 52 98 99 5 57 6 27 36 4 5 4 5 5 5 23 97 25 18 22 17
100 17 24 1 1 5 5 4 3 5 5 42 100 100 53 32 60 51 78 5 5 5 38 29 5 8 22 17 5 72 25 90
100 38 0 3 3 5 43 5 5 90 100 100 95 100 8 64 90 100 84 5 5 5 88 27 56 99 18 72 5 72 84 99

GFSFLT2_prec_cloud_030.txt.gz
Cloud_Cover
100 100 100 100 100 100 100 100 100 100 100 100 100 100 66 100 96 100 100 100 100 100 100 100 100 27 100 100 100 100 100 98
100 100 100 100 100 100 100 100 100 100 100 100 100 100 87 100 100 100 100 99 78 100 100 100 69 100 100 100 99 100 40 5
100 100 100 100 100 100 100 100 100 100 100 100 100 100 100 100 100 100 100 100 100 100 100 100 100 100 44 13 41 44 68 23
100 100 100 100 100 100 100 100 100 100 100 100 100 100 100 100 100 100 100 100 100 99 100 100 100 100 94 99 8 5 98 90
100 100 100 100 100 100 100 100 100 100 100 100 100 100 100 100 100 100 100 100 100 100 100 100 36 22 85 74 34 83 94 100
100 100 100 100 100 100 100 100 100 100 100 100 100 100 100 100 100 100 100 100 78 8 98 78 99 100 100 100 100 89 11 2
100 100 100 100 100 100 100 100 100 100 100 100 100 100 100 100 100 100 100 100 100 100 100 100 100 100 100 100 60 2 4 1
100 100 100 100 100 100 100 100 100 100 100 100 100 100 100 100 100 100 100 100 100 100 100 100 100 100 100 34 3 0 0 0
100 100 100 100 100 100 100 100 100 100 100 100 100 100 100 100 100 100 100 100 100 100 100 100 78 36 5 0 0 0 0 0
100 100 100 100 100 100 100 100 100 100 100 100 100 100 100 100 100 100 100 100 100 100 97 53 16 8 5 3 0 0 0 0
100 100 100 100 100 100 100 100 100 100 100 100 100 100 100 100 100 100 100 100 100 50 18 6 5 3 0 0 0 0 0 0
100 100 100 100 100 100 100 100 100 100 100 100 100 100 100 100 100 99 39 40 5 16 40 5 5 0 0 0 0 0 0 0
52 80 90 95 100 100 100 100 100 100 100 100 100 100 100 92 9 5 23 43 26 83 73 62 0 2 0 0 0 0 0 0
4 5 27 100 100 96 65 46 35 80 62 42 19 5 5 22 40 77 24 17 69 14 78 15 78 46 2 0 0 0 0 4
5 72 92 100 26 38 23 26 10 5 5 5 16 51 44 6 73 44 25 5 49 67 20 6 12 0 0 1 1 0 0 5
62 100 100 79 96 7 7 6 20 8 9 6 2 1 5 5 5 5 5 5 4 4 5 46 5 0 1 4 5 5 5 5
4 100 88 100 98 37 15 80 5 5 1 0 5 5 8 76 96 85 5 5 5 7 92 74 0 0 5 5 17 56 92 12
27 17 22 78 10 4 80 97 15 5 5 5 14 63 54 94 83 62 95 38 67 49 6 5 0 3 5 14 25 36 68 5
28 0 8 0 10 22 87 65 35 70 72 58 99 90 96 100 100 100 99 84 78 5 5 5 5 8 35 5 8 11 94 91
34 4 4 0 2 6 20 94 100 98 100 97 100 100 100 100 100 100 67 80 76 43 5 5 87 18 5 76 94 100 92 71

GFSFLT2_prec_cloud_033.txt.gz
Cloud_Cover
100 100 100 100 100 100 100 100 100 100 100 100 100 100 100 100 100 100 76 97 100 100 96 90 100 84 100 100 100 100 100 90
100 100 100 100 100 100 100 100 100 100 100 100 100 100 98 100 100 55 90 100 100 94 99 100 100 100 100 100 100 100 50 5
100 100 100 100 100 100 100 100 100 100 100 100 100 99 97 100 100 100 89 68 100 100 100 100 100 63 78 96 100 36 5 56
100 100 100 100 100 100 100 100 100 100 100 100 100 98 100 100 100 100 100 100 100 99 100 100 99 8 3 5 36 18 5 13
100 100 100 100 100 100 100 100 100 100 100 100 100 100 100 100 100 100 90 100 89 100 100 100 100 90 70 24 37 18 93 5
100 100 100 100 100 100 100 100 100 100 100 100 100 100 100 100 100 100 100 98 100 94 72 64 100 100 54 61 32 81 6 84
100 100 100 100 100 100 100 100 100 100 100 100 100 100 100 100 100 99 100 100 100 100 66 49 81 75 19 49 100 57 64 5
100 100 100 100 100 100 100 100 100 100 100 100 100 100 100 100 100 100 100 83 100 100 100 100 100 93 11 90 99 94 31 28
100 100 100 99 100 69 95 100 100 100 100 100 100 100 100 99 100 100 100 100 100 100 100 100 100 98 100 70 30 5 5 5
100 100 42 100 99 100 99 100 100 100 100 100 100 100 96 100 84 94 98 100 100 100 100 100 86 99 90 19 5 5 3 0
100 100 100 100 100 100 100 100 100 100 100 100 100 100 100 100 100 100 100 100 100 100 100 100 90 27 6 5 2 0 0 0
100 100 100 100 100 100 100 100 100 100 100 100 100 100 100 100 100 100 100 100 100 100 76 52 11 5 5 5 5 1 0 0
100 100 100 100 100 100 100 100 100 100 100 100 100 100 100 100 100 87 58 85 75 34 6 4 5 5 99 4 5 3 0 0
100 100 100 100 100 100 80 84 91 96 100 100 100 95 72 76 46 62 50 17 6 7 0 0 0 1 8 60 77 12 0 0
100 100 98 13 11 9 38 53 36 72 38 5 8 6 7 18 8 5 2 0 4 5 2 2 5 70 53 49 3 1 3 5
12 15 63 68 83 93 92 94 21 47 62 5 5 5 6 5 5 5 5 6 33 5 5 5 5 3 1 1 5 5 10 6
5 27 100 100 100 100 100 100 100 90 42 5 5 6 5 17 28 46 8 98 96 68 31 5 5 5 5 5 5 5 7 5
18 66 100 100 98 88 63 51 13 5 38 5 96 76 30 33 5 7 16 99 98 92 96 85 64 20 15 24 93 24 69 76
53 98 90 100 100 22 12 7 4 5 5 8 44 35 65 71 33 100 100 100 100 100 35 30 77 92 98 96 98 98 12 5
100 99 99 89 85 9 0 0 0 4 25 32 99 100 100 87 100 100 100 100 96 95 99 49 100 100 19 47 57 22 15 83

GFSFLT2_prec_cloud_036.txt.gz
Cloud_Cover
100 100 100 100 100 100 100 100 100 100 100 100 100 100 100 100 89 54 65 94 38 21 15 26 5 13 70 96 86 100 45 56
100 100 100 100 100 100 100 100 100 100 100 100 100 100 100 96 75 92 94 36 5 6 63 92 15 83 100 100 60 100 73 6
100 100 100 100 100 100 100 100 100 100 100 100 100 100 96 95 78 100 44 60 96 73 15 100 100 94 26 56 74 28 65 70
100 100 100 100 100 100 100 100 100 100 100 100 90 76 91 100 100 100 100 100 100 100 100 77 70 10 36 42 6 5 5 5
100 100 100 100 100 100 100 100 100 100 100 100 100 100 100 96 77 100 100 100 100 100 88 44 100 85 83 75 4 92 21 6
100 100 100 100 100 100 100 100 100 100 100 100 100 100 86 98 100 100 100 100 98 81 54 100 99 89 100 90 97 44 27 5
100 100 100 100 100 100 100 100 100 100 100 100 100 100 100 100 99 92 100 91 92 97 100 100 32 6 5 5 55 5 28 5
100 100 100 100 100 100 100 100 100 100 100 100 100 100 100 100 100 100 100 87 100 100 88 97 40 27 10 36 92 100 86 26
100 100 100 100 100 100 100 100 100 100 100 100 100 97 100 100 100 100 100 100 100 73 6 5 31 25 28 100 100 62 31 55
100 100 100 100 100 100 100 100 100 94 100 100 100 98 100 100 100 100 100 100 100 80 57 100 100 93 64 92 84 13 23 4
89 74 100 78 100 100 100 100 80 94 100 100 100 100 100 100 100 100 100 100 100 95 82 76 24 64 63 49 19 0 0 0
100 32 37 74 94 73 58 81 100 100 100 100 100 100 100 100 100 100 100 100 92 25 66 77 58 14 4 0 0 0 0 0
8 100 100 100 100 100 100 100 100 100 100 100 100 100 100 100 100 100 100 37 6 99 86 5 0 0 0 0 0 0 2 0
100 100 79 94 100 100 100 100 100 100 100 100 100 91 72 74 63 25 13 68 39 2 0 0 0 0 5 4 1 0 3 54
100 100 100 100 89 86 97 77 50 39 51 30 60 59 31 5 17 47 14 0 0 0 4 6 32 84 5 67 25 5 4 5
78 94 77 20 18 85 93 84 100 74 77 73 30 7 20 33 11 0 0 3 4 5 76 85 91 46 30 45 21 5 5 4
100 100 100 84 84 100 100 100 100 100 82 18 5 13 5 5 5 5 6 5 7 88 89 85 6 5 79 93 32 5 5 5
93 77 94 100 100 100 100 100 100 47 62 45 5 5 6 40 5 23 35 92 100 90 99 95 80 26 5 6 5 5 5 5
19 90 100 100 100 100 100 100 100 100 100 38 41 99 79 14 97 86 92 95 100 100 100 17 79 26 5 63 5 5 5 5
16 24 100 100 100 100 100 100 100 100 89 35 100 100 100 91 61 84 100 100 100 100 100 100 45 18 5 5 5 5 5 6

GFSFLT2_prec_cloud_042.txt.gz
Cloud_Cover
100 100 100 100 100 100 100 100 100 100 100 100 100 100 100 100 94 15 5 48 98 100 88 1 1 4 0 0 0 5 3 5
100 100 100 100 100 100 100 100 100 100 100 100 100 100 100 98 43 31 42 96 89 73 2 4 5 0 1 5 57 13 76 35
100 100 100 100 100 100 100 100 100 100 100 100 100 100 100 47 56 83 88 21 12 4 0 1 4 7 97 72 85 25 7 5
100 100 100 100 100 100 100 100 100 100 100 100 100 100 100 100 100 51 5 6 36 5 17 11 54 92 90 96 95 7 4 5
100 100 100 100 100 100 100 100 100 100 100 100 100 83 24 22 100 60 73 26 6 61 68 100 95 40 93 28 43 23 48 99
100 100 100 100 100 100 100 100 100 100 100 100 100 100 100 26 86 98 70 91 71 100 100 100 98 63 76 9 70 76 92 99
100 100 100 100 100 100 100 100 100 100 100 100 100 94 63 77 97 91 99 100 100 100 99 100 98 57 68 90 70 22 29 89
100 100 100 100 100 100 100 100 100 100 100 100 100 92 100 100 91 80 99 100 78 100 100 100 99 93 96 53 32 12 60 7
100 100 100 100 100 100 100 100 100 100 100 100 100 99 99 100 100 54 96 100 100 100 100 100 92 66 70 29 94 12 6 5
100 100 100 100 100 100 100 100 100 100 100 100 100 100 100 98 100 100 100 100 100 99 39 11 59 10 66 5 7 26 5 5
100 100 100 100 100 100 100 100 100 100 100 92 97 100 100 100 100 100 100 100 64 10 42 100 97 67 36 18 5 5 4 4
100 100 100 100 100 100 100 100 100 100 100 100 100 100 100 100 100 100 66 19 26 61 99 22 5 5 4 5 5 1 0 0
100 100 100 100 100 100 100 100 100 100 100 100 100 100 100 100 74 5 5 82 100 24 55 5 5 2 5 5 0 0 0 0
100 100 100 100 100 100 100 100 100 100 100 100 98 58 61 31 57 21 10 11 38 7 4 4 5 5 5 5 39 19 1 4
50 98 100 100 100 100 100 100 100 100 87 91 100 100 62 98 100 97 25 5 5 5 5 5 5 5 12 95 89 96 24 4
87 100 99 100 100 61 39 82 99 38 36 52 70 99 90 67 100 100 70 6 5 5 5 5 89 100 100 89 55 73 5 5
100 100 100 100 100 100 100 100 74 33 65 75 100 100 100 100 100 100 100 100 69 5 16 98 96 100 79 8 5 4 2 5
80 78 86 88 88 84 100 100 97 91 74 48 64 96 100 96 100 99 99 76 92 78 85 100 86 97 58 10 21 5 5 2
75 41 96 92 100 100 100 100 100 100 100 100 100 100 100 100 100 100 100 92 100 100 94 100 86 100 59 80 5 5 5 5
80 100 77 100 100 100 100 100 100 100 100 100 100 100 100 100 100 100 100 100 100 100 100 100 100 70 5 6 5 30 5 5

GFSFLT2_prec_cloud_045.txt.gz
Cloud_Cover
100 100 100 100 100 96 100 99 99 100 100 66 100 100 100 100 100 100 100 82 5 5 79 33 4 3 0 3 0 1 2 4
100 100 100 100 100 100 100 100 100 100 100 100 100 100 100 100 100 86 10 5 14 59 63 5 0 0 0 4 0 0 5 5
100 100 100 100 100 100 100 100 100 100 100 100 100 100 100 100 100 79 70 68 91 22 6 0 1 2 4 5 5 50 6 6
100 100 100 100 100 100 100 100 100 100 100 100 100 100 100 100 100 100 100 81 44 12 5 24 5 5 5 69 87 53 84 82
100 100 100 100 100 100 100 100 100 100 100 100 100 100 100 100 100 98 58 83 46 11 15 55 34 17 8 81 98 99 100 12
100 100 100 100 100 100 100 100 100 100 100 100 100 100 100 100 100 100 100 100 68 85 94 36 8 8 45 8 38 100 87 100
100 100 100 100 100 100 100 100 100 100 100 100 100 100 100 100 100 100 100 91 64 99 94 76 94 98 100 100 99 78 4 34
100 100 100 100 100 100 100 100 100 100 100 100 100 100 100 100 100 98 100 75 98 81 56 97 97 97 100 99 18 94 50 5
100 100 100 100 100 100 100 100 100 100 100 100 100 100 100 100 100 100 100 100 100 100 10 60 21 89 26 75 49 5 1 2
100 100 100 100 100 100 100 100 100 100 100 100 100 100 100 100 100 100 100 99 93 96 15 32 86 97 84 42 5 5 5 3
100 100 100 100 100 100 100 100 100 100 100 100 100 100 100 100 100 100 100 95 84 65 95 50 6 61 3 7 15 7 3 1
100 100 100 100 100 100 100 100 100 100 100 100 100 100 100 100 100 100 100 84 95 70 62 87 85 6 26 7 2 2 2 5
100 100 100 100 100 100 100 100 100 100 100 100 100 100 100 100 89 53 83 15 45 4 5 5 11 56 8 3 1 5 4 4
100 100 100 100 100 100 100 100 100 100 100 100 100 100 99 89 86 30 6 37 28 5 61 62 27 2 5 5 17 100 59 4
96 81 100 100 100 100 100 100 100 100 100 100 100 99 73 32 53 39 30 21 38 69 96 95 5 4 5 24 40 84 34 5
12 26 97 100 100 100 100 100 100 100 100 100 100 100 100 89 73 67 8 59 100 100 100 8 6 20 71 54 58 5 5 6
5 5 33 100 100 100 100 100 100 100 98 98 97 100 100 78 82 93 92 100 99 96 78 56 100 90 100 89 7 5 5 6
53 52 44 76 78 96 100 100 92 94 98 100 97 100 99 64 88 100 67 86 100 54 79 100 100 100 100 100 76 68 61 99
100 100 92 99 45 94 92 51 96 97 100 100 100 100 100 100 92 100 100 100 100 100 100 100 100 93 100 100 98 8 50 84
5 8 87 69 87 98 100 100 100 100 100 100 100 100 100 100 100 100 100 100 100 100 100 100 100 100 99 62 100 100 99 100

GFSFLT2_prec_cloud_048.txt.gz
Cloud_Cover
100 100 100 100 100 100 100 100 100 100 100 99 5 37 95 100 75 100 100 63 42 37 5 5 5 5 5 0 0 0 28 0
100 92 100 100 100 100 100 100 79 100 100 100 100 76 98 100 100 100 100 94 6 5 5 5 5 5 0 0 0 0 27 0
100 100 100 100 100 100 100 100 100 100 100 100 100 100 100 100 100 100 100 90 25 13 29 36 4 2 0 0 0 3 7 5
100 100 100 100 100 100 100 100 100 100 100 100 100 100 100 100 100 100 100 100 96 97 100 100 5 2 5 5 4 5 95 33
100 100 100 100 100 100 100 100 100 100 100 100 100 100 100 100 100 100 100 100 71 55 26 91 5 21 22 48 6 6 83 99
100 100 100 100 100 100 100 100 100 100 100 100 100 100 100 100 100 100 100 100 100 80 52 78 5 5 59 100 98 100 98 68
100 100 100 100 100 100 100 100 100 100 100 100 100 100 100 100 100 100 100 100 72 97 84 100 19 90 72 90 9 62 5 58
100 100 100 100 100 100 100 100 100 100 100 100 100 100 100 100 100 100 100 100 100 100 100 100 100 100 96 66 7 10 5 13
100 100 100 100 100 100 100 100 100 100 100 100 100 100 100 100 100 100 100 100 100 45 99 100 99 73 100 76 6 7 33 5
100 100 100 100 100 100 100 100 100 100 100 100 100 100 100 100 98 100 100 100 100 100 100 100 100 96 84 5 7 4 5 1
100 100 100 100 100 100 100 100 96 100 100 100 100 100 100 100 100 100 100 100 100 100 100 100 77 85 38 57 5 5 3 5
100 100 100 100 100 100 100 100 100 100 100 100 100 100 100 100 100 100 100 100 100 100 100 100 69 6 9 1 0 3 5 5
100 100 100 100 100 100 100 100 100 100 100 100 100 100 100 100 100 100 100 100 100 100 100 17 5 5 5 3 1 0 5 5
100 100 100 100 100 100 100 100 100 100 100 100 100 100 100 100 100 100 100 57 82 24 6 5 6 5 15 24 5 7 10 5
100 100 100 100 100 100 100 100 100 100 100 100 100 100 100 79 67 100 100 91 73 34 6 38 78 59 89 34 36 22 5 5
100 100 100 100 100 100 100 100 100 100 100 100 100 100 100 100 99 95 98 91 100 100 83 68 85 34 68 86 95 100 62 25
48 100 100 90 93 100 100 100 41 92 100 100 100 81 57 100 100 100 98 100 97 99 100 100 100 73 88 100 100 100 100 95
5 5 15 62 40 79 86 100 100 100 100 100 100 93 100 100 100 100 92 100 100 100 100 100 100 100 100 100 100 53 100 100
100 100 99 86 100 99 81 84 99 91 79 50 99 100 100 100 100 100 100 100 100 100 100 100 100 100 100 100 100 100 99 72
100 100 100 100 100 100 100 74 100 100 96 82 100 87 100 100 100 100 100 100 100 100 100 100 100 100 100 100 100 92 99 100